| time (UTC) | temp C | wind direction | speed KPH | gust KPH | rain 1hr cm | rain 24hr cm | rain mn cm | humidity % | barometer mb |
| 20260508044758 | 10 | 297 | 0.0 | 0.0 | 0.00 | 0.36 | 0.00 | 90 | 1017.4 |
| 20260508044257 | 10 | 238 | 0.0 | 0.0 | 0.00 | 0.36 | 0.00 | 90 | 1017.2 |
| 20260508043757 | 10 | 237 | 0.0 | 0.0 | 0.00 | 0.36 | 0.00 | 89 | 1017.2 |
| 20260508043257 | 10 | 237 | 0.0 | 0.0 | 0.00 | 0.36 | 0.00 | 89 | 1017.2 |
| 20260508042757 | 10 | 238 | 0.0 | 0.0 | 0.00 | 0.36 | 0.00 | 89 | 1017.2 |
| 20260508042259 | 10 | 233 | 0.0 | 0.0 | 0.00 | 0.36 | 0.00 | 89 | 1017.2 |
| 20260508041257 | 10 | 233 | 0.0 | 0.0 | 0.00 | 0.36 | 0.00 | 88 | 1017.2 |
| 20260508040757 | 10 | 233 | 0.0 | 0.0 | 0.00 | 0.36 | 0.00 | 88 | 1017.2 |
| 20260508040258 | 10 | 233 | 0.0 | 0.0 | 0.00 | 0.36 | 0.00 | 88 | 1017.2 |
| 20260508035758 | 10 | 233 | 0.0 | 0.0 | 0.00 | 0.36 | 0.00 | 88 | 1017.1 |
| 20260508034757 | 10 | 233 | 0.0 | 0.0 | 0.00 | 0.36 | 0.00 | 87 | 1017.1 |
| 20260508033757 | 10 | 233 | 0.0 | 0.0 | 0.00 | 0.36 | 0.00 | 88 | 1017.1 |
| 20260508032758 | 10 | 232 | 0.0 | 0.0 | 0.00 | 0.36 | 0.00 | 87 | 1017.1 |
| 20260508032258 | 10 | 233 | 0.0 | 0.0 | 0.00 | 0.36 | 0.00 | 87 | 1017.1 |
| 20260508031758 | 10 | 233 | 0.0 | 0.0 | 0.00 | 0.36 | 0.00 | 87 | 1017.1 |
| 20260508031258 | 10 | 233 | 0.0 | 0.0 | 0.00 | 0.36 | 0.00 | 87 | 1017.1 |
| 20260508030757 | 10 | 233 | 0.0 | 0.0 | 0.00 | 0.36 | 0.00 | 87 | 1017.1 |
| 20260508030259 | 10 | 233 | 0.0 | 0.0 | 0.00 | 0.36 | 0.00 | 87 | 1017.1 |
| 20260508025758 | 10 | 233 | 0.0 | 0.0 | 0.00 | 0.36 | 0.00 | 88 | 1017.1 |
| 20260508025258 | 10 | 233 | 0.0 | 0.0 | 0.00 | 0.36 | 0.00 | 88 | 1017.1 |
| 20260508024757 | 10 | 233 | 0.0 | 0.0 | 0.00 | 0.36 | 0.00 | 88 | 1017.1 |
| 20260508024258 | 10 | 275 | 0.0 | 0.0 | 0.00 | 0.36 | 0.00 | 87 | 1017.1 |
| 20260508023758 | 10 | 298 | 0.0 | 0.0 | 0.00 | 0.36 | 0.00 | 86 | 1017.1 |
| 20260508023258 | 10 | 298 | 0.0 | 0.0 | 0.00 | 0.36 | 0.00 | 85 | 1017.1 |
| 20260508022757 | 10 | 298 | 0.0 | 0.0 | 0.00 | 0.36 | 0.00 | 83 | 1017.2 |
| 20260508022258 | 10 | 298 | 0.0 | 0.0 | 0.00 | 0.36 | 0.00 | 83 | 1017.2 |
| 20260508021758 | 10 | 298 | 0.0 | 0.0 | 0.00 | 0.36 | 0.00 | 83 | 1017.2 |
| 20260508021259 | 10 | 298 | 0.0 | 0.0 | 0.00 | 0.36 | 0.00 | 83 | 1017.2 |
| 20260508020758 | 10 | 298 | 0.0 | 0.0 | 0.00 | 0.36 | 0.00 | 84 | 1017.2 |
| 20260508020258 | 10 | 317 | 0.0 | 0.0 | 0.00 | 0.36 | 0.00 | 84 | 1017.2 |
| 20260508015757 | 10 | 313 | 0.0 | 0.0 | 0.00 | 0.36 | 0.00 | 86 | 1017.2 |
| 20260508015259 | 10 | 250 | 0.0 | 0.0 | 0.00 | 0.36 | 0.00 | 85 | 1017.2 |
| 20260508014759 | 10 | 281 | 0.0 | 0.0 | 0.00 | 0.36 | 0.00 | 84 | 1017.2 |
| 20260508014259 | 10 | 263 | 0.0 | 0.0 | 0.00 | 0.36 | 0.00 | 85 | 1017.0 |
| 20260508013757 | 10 | 240 | 0.0 | 0.0 | 0.00 | 0.36 | 0.00 | 85 | 1017.0 |
| 20260508013257 | 10 | 236 | 0.0 | 0.0 | 0.00 | 0.36 | 0.00 | 84 | 1017.0 |
| 20260508012758 | 10 | 236 | 0.0 | 0.0 | 0.00 | 0.36 | 0.00 | 84 | 1017.0 |
| 20260508011758 | 10 | 236 | 0.0 | 0.0 | 0.00 | 0.36 | 0.00 | 83 | 1017.0 |
| 20260508010758 | 11 | 236 | 0.0 | 0.0 | 0.00 | 0.36 | 0.00 | 83 | 1017.0 |
| 20260508010259 | 11 | 236 | 0.0 | 0.0 | 0.00 | 0.36 | 0.00 | 83 | 1017.0 |
| 20260508005758 | 11 | 236 | 0.0 | 0.0 | 0.00 | 0.36 | 0.00 | 82 | 1017.0 |
| 20260508005257 | 11 | 236 | 0.0 | 0.0 | 0.00 | 0.36 | 0.00 | 82 | 1017.0 |
| 20260508004758 | 11 | 236 | 0.0 | 0.0 | 0.00 | 0.36 | 0.00 | 81 | 1017.0 |
| 20260508003758 | 11 | 236 | 0.0 | 0.0 | 0.00 | 0.36 | 0.00 | 81 | 1016.9 |
| 20260508003257 | 11 | 237 | 0.0 | 0.0 | 0.00 | 0.36 | 0.00 | 80 | 1016.9 |
| 20260508002758 | 11 | 237 | 0.0 | 0.0 | 0.00 | 0.36 | 0.00 | 79 | 1016.7 |
| 20260508002258 | 11 | 237 | 0.0 | 0.0 | 0.00 | 0.36 | 0.00 | 79 | 1016.7 |
| 20260508001757 | 11 | 237 | 0.0 | 0.0 | 0.00 | 0.36 | 0.00 | 79 | 1016.7 |
| 20260508001258 | 12 | 227 | 0.0 | 0.0 | 0.00 | 0.36 | 0.00 | 78 | 1016.7 |
| 20260508000759 | 12 | 225 | 0.0 | 0.0 | 0.00 | 0.36 | 0.00 | 76 | 1016.7 |
| 20260508000258 | 12 | 249 | 0.0 | 0.0 | 0.00 | 0.36 | 0.00 | 75 | 1016.7 |
| 20260507235758 | 12 | 303 | 0.0 | 0.0 | 0.00 | 0.36 | 0.00 | 74 | 1016.7 |
| 20260507235258 | 12 | 8 | 1.6 | 0.0 | 0.00 | 0.36 | 0.00 | 75 | 1016.7 |
| 20260507234759 | 12 | 311 | 1.6 | 8.0 | 0.00 | 0.36 | 0.00 | 75 | 1016.7 |
| 20260507234259 | 12 | 299 | 3.2 | 4.8 | 0.00 | 0.36 | 0.00 | 76 | 1016.7 |
| 20260507233758 | 12 | 287 | 3.2 | 9.7 | 0.00 | 0.36 | 0.00 | 76 | 1016.7 |
| 20260507232758 | 12 | 310 | 3.2 | 11.3 | 0.00 | 0.36 | 0.00 | 77 | 1016.7 |
| 20260507232258 | 12 | 24 | 0.0 | 12.9 | 0.00 | 0.36 | 0.00 | 78 | 1016.7 |
| 20260507231759 | 12 | 310 | 0.0 | 11.3 | 0.00 | 0.36 | 0.00 | 80 | 1016.7 |
| 20260507231258 | 11 | 297 | 0.0 | 8.0 | 0.00 | 0.36 | 0.00 | 82 | 1016.9 |
| 20260507230758 | 11 | 285 | 0.0 | 8.0 | 0.00 | 0.36 | 0.00 | 83 | 1016.9 |
| 20260507225759 | 11 | 251 | 0.0 | 0.0 | 0.00 | 0.36 | 0.00 | 83 | 1016.9 |
| 20260507225258 | 11 | 251 | 0.0 | 0.0 | 0.00 | 0.36 | 0.00 | 83 | 1016.9 |
| 20260507224259 | 12 | 251 | 0.0 | 0.0 | 0.00 | 0.36 | 0.00 | 83 | 1016.8 |
| 20260507223759 | 12 | 251 | 0.0 | 0.0 | 0.00 | 0.36 | 0.00 | 83 | 1016.8 |
| 20260507223259 | 12 | 251 | 0.0 | 0.0 | 0.00 | 0.36 | 0.00 | 83 | 1016.8 |
| 20260507222259 | 12 | 251 | 0.0 | 0.0 | 0.00 | 0.36 | 0.00 | 83 | 1016.7 |
| 20260507221758 | 12 | 251 | 0.0 | 0.0 | 0.00 | 0.36 | 0.00 | 82 | 1016.7 |
| 20260507221258 | 12 | 251 | 0.0 | 0.0 | 0.00 | 0.36 | 0.00 | 81 | 1016.6 |
| 20260507220758 | 12 | 251 | 0.0 | 0.0 | 0.00 | 0.36 | 0.00 | 81 | 1016.6 |
| 20260507220258 | 12 | 251 | 0.0 | 0.0 | 0.00 | 0.36 | 0.00 | 81 | 1016.6 |
| 20260507215259 | 12 | 251 | 0.0 | 0.0 | 0.00 | 0.36 | 0.36 | 81 | 1016.6 |
| 20260507214759 | 12 | 251 | 0.0 | 0.0 | 0.00 | 0.36 | 0.36 | 81 | 1016.6 |
| 20260507214258 | 12 | 251 | 0.0 | 0.0 | 0.00 | 0.36 | 0.36 | 81 | 1016.6 |
| 20260507213758 | 12 | 251 | 0.0 | 0.0 | 0.00 | 0.36 | 0.36 | 81 | 1016.6 |
| 20260507213257 | 12 | 251 | 0.0 | 0.0 | 0.00 | 0.36 | 0.36 | 81 | 1016.6 |
| 20260507212758 | 12 | 251 | 0.0 | 0.0 | 0.00 | 0.36 | 0.36 | 80 | 1016.5 |
| 20260507211758 | 13 | 251 | 0.0 | 0.0 | 0.00 | 0.36 | 0.36 | 79 | 1016.5 |
| 20260507210757 | 13 | 251 | 0.0 | 0.0 | 0.00 | 0.36 | 0.36 | 79 | 1016.5 |
| 20260507210259 | 13 | 251 | 0.0 | 0.0 | 0.00 | 0.36 | 0.36 | 78 | 1016.5 |
| 20260507205257 | 13 | 229 | 0.0 | 0.0 | 0.00 | 0.36 | 0.36 | 78 | 1016.4 |
| 20260507204257 | 13 | 229 | 0.0 | 0.0 | 0.00 | 0.36 | 0.36 | 79 | 1016.3 |
| 20260507203258 | 13 | 229 | 0.0 | 0.0 | 0.00 | 0.36 | 0.36 | 78 | 1016.3 |
| 20260507202258 | 13 | 229 | 0.0 | 0.0 | 0.00 | 0.36 | 0.36 | 78 | 1016.1 |
| 20260507201258 | 13 | 230 | 0.0 | 0.0 | 0.00 | 0.36 | 0.36 | 78 | 1016.1 |
| 20260507200758 | 13 | 230 | 0.0 | 0.0 | 0.00 | 0.36 | 0.36 | 79 | 1016.1 |
| 20260507200258 | 13 | 230 | 0.0 | 0.0 | 0.00 | 0.36 | 0.36 | 79 | 1016.1 |
| 20260507195759 | 13 | 231 | 0.0 | 0.0 | 0.00 | 0.36 | 0.36 | 81 | 1016.1 |
| 20260507195258 | 13 | 231 | 0.0 | 0.0 | 0.00 | 0.36 | 0.36 | 81 | 1016.1 |
| 20260507194759 | 13 | 226 | 0.0 | 0.0 | 0.00 | 0.36 | 0.36 | 81 | 1016.1 |
| 20260507194258 | 13 | 225 | 0.0 | 0.0 | 0.00 | 0.36 | 0.36 | 81 | 1015.9 |
| 20260507193759 | 13 | 225 | 0.0 | 0.0 | 0.00 | 0.36 | 0.36 | 80 | 1015.9 |
| 20260507193258 | 13 | 225 | 0.0 | 0.0 | 0.00 | 0.36 | 0.36 | 81 | 1015.9 |
| 20260507192758 | 13 | 226 | 0.0 | 0.0 | 0.00 | 0.36 | 0.36 | 81 | 1015.7 |
| 20260507192258 | 13 | 224 | 0.0 | 0.0 | 0.00 | 0.36 | 0.36 | 80 | 1015.7 |
| 20260507191758 | 13 | 224 | 0.0 | 0.0 | 0.00 | 0.36 | 0.36 | 79 | 1015.7 |
| 20260507191259 | 13 | 224 | 0.0 | 0.0 | 0.00 | 0.36 | 0.36 | 79 | 1015.3 |
| 20260507190758 | 13 | 224 | 0.0 | 0.0 | 0.00 | 0.36 | 0.36 | 78 | 1015.3 |
| 20260507190300 | 13 | 224 | 0.0 | 0.0 | 0.00 | 0.36 | 0.36 | 78 | 1015.3 |
| 20260507185758 | 13 | 224 | 0.0 | 0.0 | 0.00 | 0.36 | 0.36 | 78 | 1015.1 |
| 20260507185258 | 13 | 224 | 0.0 | 0.0 | 0.00 | 0.36 | 0.36 | 77 | 1015.1 |
| 20260507184258 | 13 | 224 | 0.0 | 0.0 | 0.00 | 0.36 | 0.36 | 78 | 1014.8 |
| 20260507183258 | 13 | 225 | 0.0 | 0.0 | 0.00 | 0.36 | 0.36 | 77 | 1014.8 |
| 20260507182758 | 13 | 224 | 0.0 | 0.0 | 0.00 | 0.36 | 0.36 | 77 | 1014.6 |
| 20260507181758 | 14 | 222 | 0.0 | 0.0 | 0.00 | 0.36 | 0.36 | 76 | 1014.6 |
| 20260507181258 | 14 | 223 | 0.0 | 0.0 | 0.00 | 0.36 | 0.36 | 75 | 1014.5 |
| 20260507180758 | 14 | 224 | 0.0 | 0.0 | 0.00 | 0.36 | 0.36 | 74 | 1014.5 |
| 20260507180259 | 14 | 223 | 0.0 | 0.0 | 0.00 | 0.36 | 0.36 | 74 | 1014.5 |
| 20260507175259 | 15 | 234 | 0.0 | 0.0 | 0.00 | 0.36 | 0.36 | 73 | 1014.2 |
| 20260507174758 | 15 | 220 | 0.0 | 0.0 | 0.00 | 0.36 | 0.36 | 72 | 1014.2 |
| 20260507174257 | 15 | 222 | 0.0 | 0.0 | 0.00 | 0.36 | 0.36 | 71 | 1014.1 |
| 20260507173758 | 15 | 168 | 0.0 | 0.0 | 0.00 | 0.36 | 0.36 | 70 | 1014.1 |
| 20260507173258 | 15 | 230 | 0.0 | 0.0 | 0.00 | 0.36 | 0.36 | 70 | 1014.1 |
| 20260507172758 | 15 | 231 | 0.0 | 0.0 | 0.00 | 0.36 | 0.36 | 68 | 1013.9 |
| 20260507172258 | 15 | 231 | 0.0 | 0.0 | 0.00 | 0.36 | 0.36 | 67 | 1013.9 |
| 20260507171258 | 15 | 243 | 1.6 | 0.0 | 0.00 | 0.36 | 0.36 | 74 | 1013.8 |
| 20260507170759 | 15 | 243 | 1.6 | 0.0 | 0.00 | 0.36 | 0.36 | 74 | 1013.8 |
| 20260507170258 | 15 | 245 | 0.0 | 9.7 | 0.00 | 0.36 | 0.36 | 75 | 1013.8 |
| 20260507164800 | 16 | 229 | 0.0 | 0.0 | 0.00 | 0.36 | 0.36 | 75 | 1014.0 |
| 20260507164258 | 16 | 229 | 0.0 | 0.0 | 0.00 | 0.36 | 0.36 | 75 | 1013.9 |
| 20260507163758 | 17 | 231 | 0.0 | 0.0 | 0.00 | 0.36 | 0.36 | 74 | 1013.9 |
| 20260507163258 | 17 | 231 | 0.0 | 0.0 | 0.00 | 0.36 | 0.36 | 72 | 1013.9 |
| 20260507162759 | 17 | 231 | 0.0 | 0.0 | 0.00 | 0.36 | 0.36 | 72 | 1013.9 |
| 20260507162259 | 17 | 33 | 0.0 | 0.0 | 0.00 | 0.36 | 0.36 | 69 | 1013.9 |
| 20260507161759 | 17 | 33 | 0.0 | 0.0 | 0.00 | 0.36 | 0.36 | 69 | 1013.9 |
| 20260507161258 | 17 | 33 | 0.0 | 0.0 | 0.00 | 0.36 | 0.36 | 69 | 1014.1 |
| 20260507160758 | 17 | 34 | 0.0 | 0.0 | 0.00 | 0.36 | 0.36 | 69 | 1014.1 |
| 20260507160259 | 17 | 34 | 0.0 | 0.0 | 0.00 | 0.36 | 0.36 | 68 | 1014.1 |
| 20260507155800 | 17 | 29 | 0.0 | 9.7 | 0.00 | 0.36 | 0.36 | 70 | 1014.0 |
| 20260507155300 | 17 | 224 | 0.0 | 0.0 | 0.00 | 0.36 | 0.36 | 72 | 1014.0 |
| 20260507154258 | 17 | 94 | 0.0 | 0.0 | 0.00 | 0.36 | 0.36 | 68 | 1014.0 |
| 20260507153757 | 17 | 94 | 0.0 | 0.0 | 0.00 | 0.36 | 0.36 | 69 | 1014.0 |
| 20260507152758 | 17 | 108 | 0.0 | 0.0 | 0.00 | 0.36 | 0.36 | 69 | 1013.9 |
| 20260507152258 | 17 | 108 | 0.0 | 0.0 | 0.00 | 0.36 | 0.36 | 67 | 1013.9 |
| 20260507151758 | 17 | 102 | 0.0 | 8.0 | 0.00 | 0.36 | 0.36 | 66 | 1013.9 |
| 20260507151259 | 17 | 75 | 0.0 | 0.0 | 0.00 | 0.36 | 0.36 | 65 | 1013.9 |
| 20260507150758 | 17 | 47 | 0.0 | 0.0 | 0.00 | 0.36 | 0.36 | 63 | 1013.9 |
| 20260507150259 | 17 | 113 | 0.0 | 0.0 | 0.00 | 0.36 | 0.36 | 62 | 1013.9 |
| 20260507145759 | 17 | 148 | 0.0 | 0.0 | 0.00 | 0.36 | 0.36 | 62 | 1013.9 |
| 20260507145258 | 17 | 175 | 0.0 | 0.0 | 0.00 | 0.36 | 0.36 | 65 | 1013.9 |
| 20260507144758 | 17 | 219 | 0.0 | 0.0 | 0.00 | 0.36 | 0.36 | 63 | 1013.9 |
| 20260507144258 | 17 | 202 | 0.0 | 0.0 | 0.00 | 0.36 | 0.36 | 63 | 1014.0 |
| 20260507143800 | 17 | 203 | 0.0 | 0.0 | 0.00 | 0.36 | 0.36 | 62 | 1014.0 |
| 20260507143257 | 18 | 140 | 0.0 | 0.0 | 0.00 | 0.36 | 0.36 | 60 | 1014.0 |
| 20260507142758 | 18 | 133 | 0.0 | 0.0 | 0.00 | 0.36 | 0.36 | 61 | 1014.2 |
| 20260507142259 | 18 | 150 | 0.0 | 0.0 | 0.00 | 0.36 | 0.36 | 65 | 1014.2 |
| 20260507141258 | 17 | 60 | 0.0 | 0.0 | 0.00 | 0.36 | 0.36 | 63 | 1014.2 |
| 20260507140758 | 17 | 49 | 0.0 | 0.0 | 0.00 | 0.36 | 0.36 | 62 | 1014.2 |
| 20260507140259 | 17 | 99 | 0.0 | 0.0 | 0.00 | 0.36 | 0.36 | 63 | 1014.2 |
| 20260507135758 | 17 | 112 | 0.0 | 0.0 | 0.00 | 0.36 | 0.36 | 65 | 1014.4 |
| 20260507134800 | 16 | 51 | 0.0 | 0.0 | 0.00 | 0.36 | 0.36 | 68 | 1014.4 |
| 20260507134300 | 16 | 36 | 0.0 | 0.0 | 0.00 | 0.36 | 0.36 | 67 | 1014.4 |
| 20260507133758 | 16 | 40 | 0.0 | 0.0 | 0.00 | 0.36 | 0.36 | 67 | 1014.4 |
| 20260507133258 | 17 | 72 | 0.0 | 0.0 | 0.00 | 0.36 | 0.36 | 68 | 1014.4 |
| 20260507132758 | 17 | 50 | 0.0 | 0.0 | 0.00 | 0.36 | 0.36 | 65 | 1014.5 |
| 20260507132258 | 17 | 22 | 0.0 | 0.0 | 0.00 | 0.36 | 0.36 | 62 | 1014.5 |
| 20260507131759 | 17 | 6 | 0.0 | 0.0 | 0.00 | 0.36 | 0.36 | 60 | 1014.5 |
| 20260507130758 | 16 | 336 | 0.0 | 0.0 | 0.00 | 0.36 | 0.36 | 61 | 1014.6 |
| 20260507130258 | 16 | 336 | 1.6 | 0.0 | 0.00 | 0.36 | 0.36 | 65 | 1014.6 |
| 20260507125758 | 16 | 60 | 1.6 | 0.0 | 0.00 | 0.36 | 0.36 | 65 | 1014.7 |
| 20260507125258 | 16 | 10 | 0.0 | 9.7 | 0.00 | 0.36 | 0.36 | 68 | 1014.7 |
| 20260507124758 | 15 | 37 | 0.0 | 14.5 | 0.00 | 0.36 | 0.36 | 72 | 1014.7 |
| 20260507124259 | 15 | 39 | 0.0 | 0.0 | 0.00 | 0.36 | 0.36 | 67 | 1014.6 |
| 20260507123758 | 15 | 56 | 0.0 | 0.0 | 0.00 | 0.36 | 0.36 | 69 | 1014.6 |
| 20260507123258 | 14 | 343 | 3.2 | 11.3 | 0.08 | 0.36 | 0.36 | 72 | 1014.6 |
| 20260507122758 | 13 | 55 | 3.2 | 8.0 | 0.08 | 0.36 | 0.36 | 84 | 1014.7 |
| 20260507121800 | 13 | 235 | 3.2 | 12.9 | 0.15 | 0.36 | 0.36 | 82 | 1014.7 |
| 20260507121258 | 12 | 237 | 3.2 | 16.1 | 0.18 | 0.36 | 0.36 | 81 | 1014.9 |
| 20260507120759 | 12 | 228 | 3.2 | 0.0 | 0.20 | 0.36 | 0.36 | 83 | 1014.9 |
| 20260507120258 | 12 | 43 | 19.3 | 8.0 | 0.25 | 0.36 | 0.36 | 81 | 1014.9 |
| 20260507115758 | 12 | 46 | 19.3 | 12.9 | 0.36 | 0.36 | 0.36 | 79 | 1014.8 |
| 20260507114800 | 12 | 229 | 29.0 | 33.8 | 0.36 | 0.36 | 0.36 | 76 | 1014.8 |
| 20260507114258 | 12 | 233 | 27.4 | 40.2 | 0.36 | 0.36 | 0.36 | 74 | 1014.4 |
| 20260507113800 | 13 | 225 | 27.4 | 45.1 | 0.36 | 0.36 | 0.36 | 68 | 1014.4 |
| 20260507113258 | 14 | 221 | 24.1 | 35.4 | 0.28 | 0.28 | 0.28 | 67 | 1014.4 |
| 20260507112759 | 13 | 225 | 24.1 | 38.6 | 0.28 | 0.28 | 0.28 | 66 | 1014.4 |
| 20260507112259 | 13 | 235 | 25.7 | 38.6 | 0.28 | 0.28 | 0.28 | 72 | 1014.4 |
| 20260507111758 | 14 | 228 | 25.7 | 38.6 | 0.20 | 0.20 | 0.20 | 73 | 1014.4 |
| 20260507111258 | 14 | 240 | 24.1 | 40.2 | 0.18 | 0.18 | 0.18 | 72 | 1014.2 |
| 20260507110759 | 15 | 228 | 24.1 | 35.4 | 0.15 | 0.15 | 0.15 | 70 | 1014.2 |
| 20260507110259 | 16 | 223 | 8.0 | 33.8 | 0.10 | 0.10 | 0.10 | 67 | 1014.2 |
| 20260507105758 | 17 | 226 | 8.0 | 38.6 | 0.00 | 0.00 | 0.00 | 60 | 1013.8 |
| 20260507104758 | 19 | 112 | 8.0 | 19.3 | 0.00 | 0.00 | 0.00 | 59 | 1013.8 |
| 20260507104259 | 19 | 121 | 8.0 | 24.1 | 0.00 | 0.00 | 0.00 | 59 | 1013.8 |
| 20260507103758 | 19 | 98 | 8.0 | 16.1 | 0.00 | 0.00 | 0.00 | 59 | 1013.8 |
| 20260507103258 | 19 | 63 | 3.2 | 14.5 | 0.00 | 0.00 | 0.00 | 59 | 1013.8 |
| 20260507102759 | 19 | 60 | 3.2 | 16.1 | 0.00 | 0.00 | 0.00 | 56 | 1013.9 |
| 20260507101759 | 19 | 55 | 0.0 | 14.5 | 0.00 | 0.00 | 0.00 | 58 | 1013.9 |
| 20260507101258 | 19 | 87 | 0.0 | 0.0 | 0.00 | 0.00 | 0.00 | 55 | 1014.1 |
| 20260507100300 | 18 | 99 | 0.0 | 1.6 | 0.00 | 0.00 | 0.00 | 59 | 1014.1 |
| 20260507095758 | 18 | 70 | 0.0 | 0.0 | 0.00 | 0.00 | 0.00 | 57 | 1014.1 |
| 20260507095258 | 18 | 88 | 0.0 | 0.0 | 0.00 | 0.00 | 0.00 | 60 | 1014.1 |
| 20260507094758 | 18 | 76 | 0.0 | 0.0 | 0.00 | 0.00 | 0.00 | 60 | 1014.1 |
| 20260507094258 | 17 | 55 | 0.0 | 0.0 | 0.00 | 0.00 | 0.00 | 62 | 1014.4 |
| 20260507093759 | 17 | 23 | 0.0 | 0.0 | 0.00 | 0.00 | 0.00 | 65 | 1014.4 |
| 20260507093259 | 17 | 16 | 0.0 | 0.0 | 0.00 | 0.00 | 0.00 | 63 | 1014.4 |
| 20260507092758 | 17 | 19 | 0.0 | 0.0 | 0.00 | 0.00 | 0.00 | 63 | 1014.3 |
| 20260507092259 | 17 | 4 | 0.0 | 0.0 | 0.00 | 0.00 | 0.00 | 64 | 1014.3 |
| 20260507091800 | 17 | 4 | 0.0 | 0.0 | 0.00 | 0.00 | 0.00 | 64 | 1014.3 |
| 20260507091258 | 17 | 4 | 0.0 | 0.0 | 0.00 | 0.00 | 0.00 | 64 | 1014.4 |
| 20260507090800 | 17 | 10 | 0.0 | 0.0 | 0.00 | 0.00 | 0.00 | 64 | 1014.4 |
| 20260507085758 | 16 | 28 | 0.0 | 0.0 | 0.00 | 0.00 | 0.00 | 69 | 1014.5 |
| 20260507085258 | 16 | 105 | 0.0 | 0.0 | 0.00 | 0.00 | 0.00 | 70 | 1014.5 |
| 20260507084758 | 16 | 101 | 0.0 | 0.0 | 0.00 | 0.00 | 0.00 | 69 | 1014.5 |
| 20260507084259 | 16 | 17 | 0.0 | 0.0 | 0.00 | 0.00 | 0.00 | 69 | 1014.6 |
| 20260507083759 | 16 | 57 | 0.0 | 0.0 | 0.00 | 0.00 | 0.00 | 71 | 1014.6 |
| 20260507083258 | 16 | 170 | 0.0 | 0.0 | 0.00 | 0.00 | 0.00 | 71 | 1014.6 |
| 20260507082759 | 16 | 50 | 0.0 | 0.0 | 0.00 | 0.00 | 0.00 | 73 | 1014.6 |
| 20260507082259 | 16 | 33 | 0.0 | 0.0 | 0.00 | 0.00 | 0.00 | 72 | 1014.6 |
| 20260507081759 | 15 | 92 | 0.0 | 0.0 | 0.00 | 0.00 | 0.00 | 73 | 1014.6 |
| 20260507081259 | 15 | 81 | 0.0 | 0.0 | 0.00 | 0.00 | 0.00 | 75 | 1014.6 |
| 20260507080759 | 15 | 67 | 0.0 | 0.0 | 0.00 | 0.00 | 0.00 | 77 | 1014.6 |
| 20260507075759 | 15 | 27 | 0.0 | 0.0 | 0.00 | 0.00 | 0.00 | 76 | 1014.7 |
| 20260507075259 | 15 | 55 | 0.0 | 0.0 | 0.00 | 0.00 | 0.00 | 78 | 1014.7 |
| 20260507074759 | 15 | 93 | 0.0 | 0.0 | 0.00 | 0.00 | 0.00 | 79 | 1014.7 |
| 20260507074258 | 15 | 6 | 0.0 | 0.0 | 0.00 | 0.00 | 0.00 | 79 | 1014.6 |
| 20260507073758 | 14 | 51 | 0.0 | 0.0 | 0.00 | 0.00 | 0.00 | 80 | 1014.6 |
| 20260507073258 | 14 | 57 | 0.0 | 0.0 | 0.00 | 0.00 | 0.00 | 80 | 1014.6 |
| 20260507072759 | 14 | 82 | 0.0 | 0.0 | 0.00 | 0.00 | 0.00 | 81 | 1014.5 |
| 20260507071259 | 14 | 68 | 1.6 | 4.8 | 0.00 | 0.00 | 0.00 | 81 | 1014.6 |
| 20260507070759 | 13 | 58 | 1.6 | 1.6 | 0.00 | 0.00 | 0.00 | 84 | 1014.6 |
| 20260507070259 | 13 | 25 | 1.6 | 1.6 | 0.00 | 0.00 | 0.00 | 83 | 1014.6 |
| 20260507065759 | 13 | 40 | 1.6 | 11.3 | 0.00 | 0.00 | 0.00 | 83 | 1014.4 |
| 20260507065258 | 13 | 20 | 0.0 | 8.0 | 0.00 | 0.00 | 0.00 | 84 | 1014.4 |
| 20260507064759 | 13 | 33 | 0.0 | 8.0 | 0.00 | 0.00 | 0.00 | 84 | 1014.4 |
| 20260507064259 | 13 | 21 | 0.0 | 8.0 | 0.00 | 0.00 | 0.00 | 86 | 1014.4 |
| 20260507063758 | 12 | 43 | 0.0 | 0.0 | 0.00 | 0.00 | 0.00 | 84 | 1014.4 |
| 20260507063302 | 13 | 27 | 0.0 | 0.0 | 0.00 | 0.00 | 0.00 | 85 | 1014.4 |
| 20260507062758 | 13 | 24 | 0.0 | 0.0 | 0.00 | 0.00 | 0.00 | 85 | 1014.5 |
| 20260507062259 | 13 | 18 | 0.0 | 0.0 | 0.00 | 0.00 | 0.00 | 84 | 1014.5 |
| 20260507061259 | 12 | 28 | 0.0 | 0.0 | 0.00 | 0.00 | 0.00 | 85 | 1014.3 |
| 20260507060800 | 12 | 10 | 0.0 | 0.0 | 0.00 | 0.00 | 0.00 | 85 | 1014.3 |
| 20260507060259 | 12 | 10 | 0.0 | 0.0 | 0.00 | 0.00 | 0.00 | 86 | 1014.3 |
| 20260507055759 | 12 | 10 | 0.0 | 0.0 | 0.00 | 0.00 | 0.00 | 86 | 1014.3 |
| 20260507055258 | 11 | 31 | 0.0 | 0.0 | 0.00 | 0.00 | 0.00 | 87 | 1014.3 |
| 20260507054800 | 11 | 53 | 0.0 | 0.0 | 0.00 | 0.00 | 0.00 | 89 | 1014.3 |
| 20260507054259 | 11 | 53 | 0.0 | 0.0 | 0.00 | 0.00 | 0.00 | 88 | 1014.2 |
| 20260507053759 | 11 | 53 | 0.0 | 0.0 | 0.00 | 0.00 | 0.00 | 89 | 1014.2 |
| 20260507053259 | 11 | 304 | 0.0 | 0.0 | 0.00 | 0.00 | 0.00 | 89 | 1014.2 |
| 20260507052759 | 10 | 304 | 0.0 | 0.0 | 0.00 | 0.00 | 0.00 | 89 | 1014.2 |
| 20260507051758 | 10 | 304 | 0.0 | 0.0 | 0.00 | 0.00 | 0.00 | 88 | 1014.2 |
| 20260507051258 | 10 | 304 | 0.0 | 0.0 | 0.00 | 0.00 | 0.00 | 89 | 1014.1 |
| 20260507050800 | 10 | 304 | 0.0 | 0.0 | 0.00 | 0.00 | 0.00 | 89 | 1014.1 |
| 20260507045758 | 10 | 304 | 0.0 | 0.0 | 0.00 | 0.00 | 0.00 | 91 | 1014.1 |
| 20260507045259 | 10 | 304 | 0.0 | 0.0 | 0.00 | 0.00 | 0.00 | 91 | 1014.1 |